Tracking 17782 objects as of 26-July-2016
HD Live streaming from Space Station
objects crossing your sky now

SL-14 R/B

Track SL-14 R/B now!
10-day predictions


NORAD ID: 15370
Int'l Code: 1984-111B
Perigee: 609.8 km
Apogee: 640.8 km
Inclination: 82.5 °
Period: 97.1 minutes
Semi major axis: 6996 km
RCS: 4.088 m2 (large)
Launch date: October 18, 1984
Source: Commonwealth of Independent States (former USSR) (CIS)
Launch site: PLESETSK MISSILE AND SPACE COMPLEX (PKMTR)

Note: This is a ROCKET BODY
Your satellite tracking list
Your tracking list is empty





NASA's NSSDC Master Catalog

Two Line Element Set (TLE):
1 15370U 84111B   16207.88558150 +.00000114 +00000-0 +10892-4 0  9997
2 15370 082.5186 313.3660 0022153 053.1076 307.2164 14.83556172694694
Source of the keplerian elements: AFSPC

N2YO: 1229